Regional Weather Roundup
Issued by NWS

Home | Current Version | Previous Version | Graphics & Text | Print | Product List | Glossary On
Versions: 1 2 3 4 5 6 7 8 9 10 11 12 13 14 15 16 17 18 19 20 21 22 23 24 25 26 27 28 29 30 31 32 33 34 35 36 37 38 39 40 41 42 43 44 45 46 47 48 49 50
000
ASUS43 KDTX 180810
RWRMI
MICHIGAN HOURLY REGIONAL WEATHER ROUNDUP
NATIONAL WEATHER SERVICE DETROIT/PONTIAC MI
300 AM EST THU DEC 18 2014

NOTE: "FAIR" INDICATES FEW OR NO CLOUDS BELOW 12,000 FEET WITH NO
SIGNIFICANT WEATHER AND/OR OBSTRUCTION TO VISIBILITY.

MIZ047>049-052>055-059>063-066>070-074>076-081>083-180900-
SOUTHEAST LOWER MICHIGAN

CITY           SKY/WX    TMP DP  RH WIND       PRES   REMARKS
ADRIAN         CLOUDY    29  21  72 NW9       30.21F
ALMA           CLOUDY    29  27  90 W10       30.18S
ANN ARBOR      CLOUDY    29  21  72 W9        30.18S
BAD AXE        CLOUDY    28  24  86 NW7       30.15R
DETROIT CITY   CLOUDY    31  21  66 W9        30.18S
DETROIT        CLOUDY    30  21  69 W13       30.19S
FLINT          CLOUDY    30  23  75 W16       30.17R
GROSSE ILE     CLOUDY    30  21  69 W9G16     30.19R
HILLSDALE      CLOUDY    28  23  81 W9        30.19S
HOWELL         CLOUDY    28  24  86 W9        30.17S

CITY           SKY/WX    TMP DP  RH WIND       PRES   REMARKS
JACKSON        CLOUDY    28  21  75 W7        30.19S
LAMBERTVILLE   CLOUDY    32  23  69 W8        30.21F
LANSING        CLOUDY    29  23  78 W10       30.19F
LAPEER         NOT AVBL
MASON          CLOUDY    28  22  77 W12       30.18S
MONROE         CLOUDY    30  21  69 W10       30.19S
MT. CLEMENS    CLOUDY    29  26  86 W12       30.15R
PONTIAC        CLOUDY    28  21  75 W12       30.14S
PORT HOPE        N/A     28  23  81 VRB7      30.12R
PORT HURON     CLOUDY    28  27  93 W5        30.16R FOG
TRI CITIES     CLOUDY    31  26  82 W13       30.17R
YPSILANTI      CLOUDY    32  21  64 W14       30.19R
$$
MIZ043>046-050>051-056>058-064>065-071>073-077>080-180900-
SOUTHWEST LOWER MICHIGAN

CITY           SKY/WX    TMP DP  RH WIND       PRES   REMARKS
BATTLE CREEK   CLOUDY    29  21  72 W9        30.21S
BENTON HARBOR  CLOUDY    28  22  78 W8        30.26R
BIG RAPIDS     CLOUDY    29  29  99 W7        30.17S
COLDWATER      CLOUDY    28  22  77 W9        30.21S
HOLLAND        CLOUDY    33  23  66 NW7       30.23S
GRAND RAPIDS   CLOUDY    29  23  78 W8        30.22R
KALAMAZOO      CLOUDY    29  21  72 W6        30.23R
MARSHALL       CLOUDY    28  21  77 W6        30.20S
MUSKEGON       CLOUDY    32  25  75 NW7       30.23R
$$
MIZ016>042-180900-
NORTHERN LOWER MICHIGAN

CITY           SKY/WX    TMP DP  RH WIND       PRES   REMARKS
ALPENA         CLOUDY    25  20  81 NW6       30.15R
BEAVER ISLAND  CLOUDY    25  22  90 N7        30.21R
BELLAIRE       CLOUDY    28  24  86 N6        30.19R
CADILLAC       LGT SNOW  28  26  92 W7        30.14R
CHARLEVOIX     CLOUDY    27  24  89 N8        30.22R
FRANKFORT      CLOUDY    31  27  87 N3        30.20R
GAYLORD        CLOUDY    22  21  96 NW6       30.12R
GRAYLING       CLOUDY    28  26  93 NW6       30.14R
HARBOR SPRINGS CLOUDY    24  20  82 NE5       30.18R
HOUGHTON LAKE  CLOUDY    26  23  88 W12       30.14R
MANISTEE       CLOUDY    30  27  86 NW6       30.21R
OSCODA         CLOUDY    26  23  90 NW10      30.15R
PELLSTON       CLOUDY    24  19  81 N9        30.19R
TRAVERSE CITY  CLOUDY    30  25  81 N8        30.19R
$$
MIZ007>008-015-180900-
EASTERN UPPER MICHIGAN

CITY           SKY/WX    TMP DP  RH WIND       PRES   REMARKS
KINROSS        CLEAR     18  18 100 N6        30.17R
MACKINAC ISLAN MOCLDY    23  22  96 N15       30.17R
NEWBERRY       PTCLDY    19  17  95 N6        30.19R
S. S. MARIE    CLEAR     16  10  77 NW5       30.18S
$$
MIZ004>006-011>014-085-180900-
CENTRAL UPPER MICHIGAN

CITY           SKY/WX    TMP DP  RH WIND       PRES   REMARKS
MANISTIQUE     CLOUDY    24  21  90 N10       30.21R
ESCANABA       CLOUDY    27  19  74 N10       30.23R
MENOMINEE      CLOUDY    27  21  80 N7        30.25R
SAWYER-GWINN   CLOUDY    25  20  84 N12       30.22R
$$
MIZ001>003-009>011-084-180900-
WESTERN UPPER MICHIGAN

CITY           SKY/WX    TMP DP  RH WIND       PRES   REMARKS
IRON MOUNTAIN  CLOUDY    24  18  77 N13       30.24R
HOUGHTON       PTCLDY     6   4  91 CALM      30.26S
COPPER HARBOR    N/A     27  16  63 E9G17     30.30R
IRONWOOD       CLOUDY    23  21  93 CALM      30.25S
$$

ABBREVIATIONS USED IN REMARKS
   TC - TEMPERATURE IN CELSIUS
  WCI - WIND CHILL INDEX
   HX - HEAT INDEX
  VSB - VISIBILITY



USA.gov is the U.S. government's official web portal to all federal, state and local government web resources and services.